| time (UTC) | temp F | wind direction | speed MPH | gust MPH | rain 1hr in | rain 24hr in | rain mn in | humidity % | barometer mb |
| 20260904103715 | 75 | 233 | 0.0 | 0.0 | 0.00 | 0.00 | 0.00 | 97 | 1012.9 |
| 20260904103209 | 75 | 232 | 0.0 | 0.0 | 0.00 | 0.00 | 0.00 | 97 | 1013.0 |
| 20260904102705 | 76 | 232 | 0.0 | 0.0 | 0.00 | 0.00 | 0.00 | 97 | 1012.8 |
| 20260904102200 | 76 | 232 | 0.0 | 0.0 | 0.00 | 0.00 | 0.00 | 97 | 1012.8 |
| 20260904101657 | 76 | 232 | 0.0 | 0.0 | 0.00 | 0.00 | 0.00 | 97 | 1012.4 |
| 20260904101152 | 76 | 232 | 0.0 | 0.0 | 0.00 | 0.00 | 0.00 | 97 | 1012.8 |
| 20260904100648 | 76 | 218 | 0.0 | 0.0 | 0.00 | 0.00 | 0.00 | 97 | 1012.6 |
| 20260904100143 | 76 | 218 | 0.0 | 0.0 | 0.00 | 0.00 | 0.00 | 97 | 1012.6 |
| 20260904095642 | 76 | 223 | 0.0 | 0.0 | 0.00 | 0.00 | 0.00 | 96 | 1012.5 |
| 20260904095137 | 77 | 223 | 0.0 | 0.0 | 0.00 | 0.00 | 0.00 | 96 | 1012.4 |
| 20260904094633 | 77 | 205 | 0.0 | 0.0 | 0.00 | 0.00 | 0.00 | 96 | 1012.5 |
| 20260904094133 | 77 | 225 | 0.0 | 0.0 | 0.00 | 0.00 | 0.00 | 96 | 1012.5 |
| 20260904093630 | 77 | 222 | 0.0 | 0.0 | 0.00 | 0.00 | 0.00 | 96 | 1012.5 |
| 20260904093129 | 77 | 235 | 2.0 | 2.0 | 0.00 | 0.00 | 0.00 | 96 | 1012.2 |
| 20260904092626 | 77 | 208 | 1.0 | 1.0 | 0.00 | 0.00 | 0.00 | 96 | 1012.3 |
| 20260904092122 | 77 | 162 | 1.0 | 1.0 | 0.00 | 0.00 | 0.00 | 96 | 1012.4 |
| 20260904091618 | 77 | 168 | 0.0 | 0.0 | 0.00 | 0.00 | 0.00 | 96 | 1012.5 |
| 20260904091117 | 77 | 180 | 0.0 | 1.0 | 0.00 | 0.00 | 0.00 | 97 | 1012.4 |
| 20260904090612 | 77 | 186 | 2.0 | 2.0 | 0.00 | 0.00 | 0.00 | 97 | 1012.3 |
| 20260904090108 | 76 | 232 | 2.0 | 3.0 | 0.00 | 0.00 | 0.00 | 98 | 1012.3 |
| 20260904085603 | 76 | 207 | 0.0 | 1.0 | 0.00 | 0.00 | 0.00 | 98 | 1012.3 |
| 20260904085102 | 76 | 253 | 1.0 | 2.0 | 0.00 | 0.00 | 0.00 | 98 | 1012.2 |
| 20260904084558 | 75 | 157 | 1.0 | 2.0 | 0.00 | 0.00 | 0.00 | 99 | 1012.2 |
| 20260904084055 | 75 | 179 | 1.0 | 1.0 | 0.00 | 0.00 | 0.00 | 99 | 1012.2 |
| 20260904083550 | 74 | 181 | 1.0 | 2.0 | 0.00 | 0.00 | 0.00 | 99 | 1012.6 |
| 20260904083046 | 73 | 193 | 0.0 | 1.0 | 0.00 | 0.00 | 0.00 | 99 | 1012.6 |
| 20260904082541 | 73 | 191 | 0.0 | 0.0 | 0.00 | 0.00 | 0.00 | 99 | 1013.1 |
| 20260904082036 | 74 | 189 | 0.0 | 0.0 | 0.00 | 0.00 | 0.00 | 99 | 1013.4 |
| 20260904081531 | 74 | 189 | 0.0 | 0.0 | 0.00 | 0.00 | 0.00 | 99 | 1013.5 |
| 20260904081027 | 74 | 189 | 0.0 | 0.0 | 0.00 | 0.00 | 0.00 | 99 | 1013.4 |
| 20260904080522 | 74 | 189 | 0.0 | 0.0 | 0.00 | 0.00 | 0.00 | 99 | 1013.4 |
| 20260904080018 | 74 | 188 | 0.0 | 0.0 | 0.00 | 0.00 | 0.00 | 98 | 1013.2 |
| 20260904075514 | 74 | 98 | 0.0 | 0.0 | 0.00 | 0.00 | 0.00 | 98 | 1013.5 |
| 20260904075009 | 74 | 87 | 0.0 | 0.0 | 0.00 | 0.00 | 0.00 | 98 | 1013.3 |
| 20260904074503 | 75 | 147 | 0.0 | 0.0 | 0.00 | 0.00 | 0.00 | 98 | 1013.1 |
| 20260904073957 | 75 | 165 | 0.0 | 0.0 | 0.00 | 0.00 | 0.00 | 98 | 1013.1 |
| 20260904073453 | 75 | 166 | 0.0 | 0.0 | 0.00 | 0.00 | 0.00 | 98 | 1013.3 |
| 20260904072949 | 75 | 184 | 0.0 | 0.0 | 0.00 | 0.00 | 0.00 | 97 | 1013.0 |
| 20260904072445 | 75 | 185 | 0.0 | 0.0 | 0.00 | 0.00 | 0.00 | 97 | 1012.9 |
| 20260904071945 | 76 | 185 | 0.0 | 0.0 | 0.00 | 0.00 | 0.00 | 97 | 1012.9 |
| 20260904071441 | 76 | 185 | 0.0 | 0.0 | 0.00 | 0.00 | 0.00 | 97 | 1013.0 |
| 20260904070935 | 76 | 186 | 0.0 | 0.0 | 0.00 | 0.00 | 0.00 | 97 | 1012.6 |
| 20260904070433 | 76 | 222 | 2.0 | 2.0 | 0.00 | 0.00 | 0.00 | 98 | 1013.1 |
| 20260904065928 | 76 | 218 | 1.0 | 1.0 | 0.00 | 0.00 | 0.00 | 98 | 1012.6 |
| 20260904065424 | 75 | 202 | 0.0 | 0.0 | 0.00 | 0.00 | 0.00 | 98 | 1012.9 |
| 20260904064924 | 75 | 237 | 0.0 | 1.0 | 0.00 | 0.00 | 0.00 | 99 | 1012.6 |
| 20260904064415 | 75 | 202 | 0.0 | 1.0 | 0.00 | 0.00 | 0.00 | 99 | 1012.6 |
| 20260904063910 | 74 | 195 | 0.0 | 1.0 | 0.00 | 0.00 | 0.00 | 99 | 1012.9 |
| 20260904063407 | 74 | 180 | 0.0 | 1.0 | 0.00 | 0.00 | 0.00 | 99 | 1012.9 |
| 20260904062907 | 73 | 179 | 0.0 | 0.0 | 0.00 | 0.00 | 0.00 | 99 | 1013.1 |
| 20260904062403 | 74 | 190 | 0.0 | 0.0 | 0.00 | 0.00 | 0.00 | 99 | 1013.1 |
| 20260904061859 | 74 | 210 | 0.0 | 1.0 | 0.00 | 0.00 | 0.00 | 99 | 1013.2 |
| 20260904061355 | 73 | 187 | 1.0 | 1.0 | 0.00 | 0.00 | 0.00 | 99 | 1013.3 |
| 20260904060851 | 73 | 211 | 0.0 | 0.0 | 0.00 | 0.00 | 0.00 | 99 | 1013.6 |
| 20260904060347 | 73 | 212 | 0.0 | 0.0 | 0.00 | 0.00 | 0.00 | 99 | 1013.4 |
| 20260904055841 | 73 | 217 | 0.0 | 0.0 | 0.00 | 0.00 | 0.00 | 99 | 1013.5 |
| 20260904055337 | 73 | 218 | 0.0 | 0.0 | 0.00 | 0.00 | 0.00 | 99 | 1013.7 |
| 20260904054832 | 73 | 218 | 0.0 | 0.0 | 0.00 | 0.00 | 0.00 | 99 | 1014.0 |
| 20260904054328 | 73 | 200 | 0.0 | 1.0 | 0.00 | 0.00 | 0.00 | 99 | 1014.0 |
| 20260904053824 | 73 | 177 | 0.0 | 1.0 | 0.00 | 0.00 | 0.00 | 99 | 1014.1 |
| 20260904053323 | 73 | 174 | 0.0 | 1.0 | 0.00 | 0.00 | 0.00 | 99 | 1014.2 |
| 20260904052819 | 73 | 173 | 0.0 | 0.0 | 0.00 | 0.00 | 0.00 | 99 | 1014.3 |
| 20260904052315 | 73 | 173 | 0.0 | 0.0 | 0.00 | 0.00 | 0.00 | 99 | 1014.2 |
| 20260904051812 | 73 | 173 | 0.0 | 0.0 | 0.00 | 0.00 | 0.00 | 99 | 1014.2 |
| 20260904051307 | 73 | 173 | 0.0 | 0.0 | 0.00 | 0.00 | 0.00 | 99 | 1014.3 |
| 20260904050802 | 73 | 173 | 0.0 | 0.0 | 0.00 | 0.00 | 0.00 | 99 | 1014.4 |
| 20260904050259 | 73 | 173 | 0.0 | 0.0 | 0.00 | 0.00 | 0.00 | 99 | 1014.2 |
| 20260904045758 | 73 | 173 | 0.0 | 0.0 | 0.00 | 0.09 | 0.09 | 99 | 1014.0 |
| 20260904045253 | 73 | 174 | 0.0 | 0.0 | 0.00 | 0.09 | 0.09 | 99 | 1014.2 |
| 20260904044748 | 73 | 173 | 0.0 | 0.0 | 0.00 | 0.09 | 0.09 | 99 | 1014.2 |
| 20260904044245 | 73 | 173 | 0.0 | 0.0 | 0.00 | 0.09 | 0.09 | 99 | 1014.0 |
| 20260904043740 | 73 | 173 | 0.0 | 0.0 | 0.00 | 0.09 | 0.09 | 99 | 1014.0 |
| 20260904043237 | 73 | 173 | 0.0 | 0.0 | 0.00 | 0.09 | 0.09 | 99 | 1014.1 |
| 20260904042732 | 73 | 171 | 0.0 | 0.0 | 0.00 | 0.09 | 0.09 | 99 | 1013.9 |
| 20260904042228 | 73 | 165 | 0.0 | 0.0 | 0.00 | 0.09 | 0.09 | 99 | 1014.1 |
| 20260904041727 | 73 | 165 | 0.0 | 0.0 | 0.00 | 0.09 | 0.09 | 98 | 1014.0 |
| 20260904041224 | 73 | 165 | 0.0 | 0.0 | 0.00 | 0.09 | 0.09 | 98 | 1014.3 |
| 20260904040720 | 73 | 137 | 0.0 | 0.0 | 0.00 | 0.09 | 0.09 | 98 | 1014.1 |
| 20260904040215 | 73 | 129 | 2.0 | 2.0 | 0.00 | 0.09 | 0.09 | 98 | 1014.2 |
| 20260904035711 | 73 | 171 | 0.0 | 0.0 | 0.00 | 0.09 | 0.09 | 98 | 1014.3 |
| 20260904035206 | 73 | 122 | 0.0 | 1.0 | 0.00 | 0.09 | 0.09 | 98 | 1014.2 |
| 20260904034705 | 73 | 73 | 0.0 | 1.0 | 0.00 | 0.09 | 0.09 | 98 | 1014.5 |
| 20260904034201 | 73 | 159 | 0.0 | 0.0 | 0.00 | 0.09 | 0.09 | 98 | 1014.5 |
| 20260904033656 | 73 | 173 | 0.0 | 0.0 | 0.00 | 0.09 | 0.09 | 98 | 1014.6 |
| 20260904033153 | 73 | 81 | 0.0 | 0.0 | 0.00 | 0.09 | 0.09 | 98 | 1014.6 |
| 20260904032649 | 73 | 70 | 1.0 | 1.0 | 0.00 | 0.09 | 0.09 | 98 | 1014.4 |
| 20260904032148 | 74 | 184 | 0.0 | 1.0 | 0.00 | 0.09 | 0.09 | 98 | 1014.3 |
| 20260904031648 | 74 | 185 | 0.0 | 0.0 | 0.00 | 0.09 | 0.09 | 98 | 1014.3 |
| 20260904031143 | 74 | 185 | 0.0 | 0.0 | 0.00 | 0.09 | 0.09 | 98 | 1014.5 |
| 20260904030639 | 74 | 185 | 1.0 | 1.0 | 0.00 | 0.09 | 0.09 | 97 | 1014.3 |
| 20260904030134 | 74 | 189 | 0.0 | 0.0 | 0.00 | 0.09 | 0.09 | 97 | 1014.6 |
| 20260904025630 | 74 | 152 | 0.0 | 0.0 | 0.00 | 0.09 | 0.09 | 97 | 1014.6 |
| 20260904025125 | 74 | 151 | 1.0 | 1.0 | 0.00 | 0.09 | 0.09 | 97 | 1014.5 |
| 20260904024620 | 74 | 157 | 0.0 | 0.0 | 0.00 | 0.09 | 0.09 | 97 | 1014.8 |
| 20260904024116 | 74 | 106 | 1.0 | 1.0 | 0.00 | 0.09 | 0.09 | 97 | 1014.5 |
| 20260904023611 | 74 | 130 | 0.0 | 0.0 | 0.00 | 0.09 | 0.09 | 96 | 1014.6 |
| 20260904023102 | 74 | 112 | 0.0 | 0.0 | 0.00 | 0.09 | 0.09 | 96 | 1014.4 |
| 20260904022601 | 74 | 112 | 0.0 | 0.0 | 0.00 | 0.09 | 0.09 | 96 | 1014.5 |
| 20260904022059 | 75 | 118 | 0.0 | 0.0 | 0.00 | 0.09 | 0.09 | 96 | 1014.4 |
| 20260904021554 | 75 | 125 | 0.0 | 1.0 | 0.00 | 0.09 | 0.09 | 96 | 1014.2 |
| 20260904021049 | 75 | 64 | 1.0 | 2.0 | 0.00 | 0.09 | 0.09 | 96 | 1014.2 |
| 20260904020544 | 75 | 112 | 0.0 | 0.0 | 0.00 | 0.09 | 0.09 | 95 | 1014.2 |
| 20260904020039 | 75 | 126 | 0.0 | 0.0 | 0.00 | 0.09 | 0.09 | 95 | 1014.0 |
| 20260904015533 | 75 | 93 | 0.0 | 0.0 | 0.00 | 0.09 | 0.09 | 95 | 1014.0 |
| 20260904015032 | 75 | 94 | 0.0 | 0.0 | 0.00 | 0.09 | 0.09 | 95 | 1013.9 |
| 20260904014526 | 75 | 53 | 0.0 | 0.0 | 0.00 | 0.09 | 0.09 | 95 | 1014.1 |
| 20260904014022 | 75 | 52 | 0.0 | 0.0 | 0.00 | 0.09 | 0.09 | 94 | 1013.8 |
| 20260904013518 | 75 | 16 | 2.0 | 2.0 | 0.00 | 0.09 | 0.09 | 94 | 1013.7 |
| 20260904013015 | 75 | 147 | 0.0 | 1.0 | 0.00 | 0.09 | 0.09 | 94 | 1013.6 |
| 20260904012514 | 76 | 149 | 1.0 | 1.0 | 0.00 | 0.09 | 0.09 | 93 | 1013.5 |
| 20260904012009 | 76 | 75 | 0.0 | 1.0 | 0.00 | 0.09 | 0.09 | 92 | 1013.7 |
| 20260904011503 | 76 | 59 | 0.0 | 1.0 | 0.00 | 0.09 | 0.09 | 92 | 1013.5 |
| 20260904010958 | 76 | 83 | 0.0 | 0.0 | 0.00 | 0.09 | 0.09 | 91 | 1013.5 |
| 20260904010455 | 77 | 191 | 0.0 | 0.0 | 0.00 | 0.09 | 0.09 | 90 | 1013.3 |
| 20260904005955 | 77 | 309 | 0.0 | 0.0 | 0.00 | 0.09 | 0.09 | 89 | 1013.4 |
| 20260904005450 | 78 | 13 | 0.0 | 0.0 | 0.00 | 0.09 | 0.09 | 88 | 1013.5 |
| 20260904004945 | 78 | 26 | 0.0 | 0.0 | 0.00 | 0.09 | 0.09 | 87 | 1013.4 |
| 20260904004442 | 78 | 112 | 0.0 | 1.0 | 0.00 | 0.09 | 0.09 | 87 | 1013.4 |
| 20260904003941 | 78 | 151 | 0.0 | 0.0 | 0.00 | 0.09 | 0.09 | 87 | 1013.1 |
| 20260904003437 | 78 | 151 | 0.0 | 0.0 | 0.00 | 0.09 | 0.09 | 86 | 1012.8 |
| 20260904002932 | 79 | 150 | 0.0 | 0.0 | 0.00 | 0.09 | 0.09 | 85 | 1012.9 |
| 20260904002429 | 79 | 151 | 0.0 | 0.0 | 0.00 | 0.09 | 0.09 | 84 | 1012.6 |
| 20260904001927 | 79 | 151 | 0.0 | 0.0 | 0.00 | 0.09 | 0.09 | 83 | 1012.6 |
| 20260904001423 | 79 | 151 | 1.0 | 2.0 | 0.00 | 0.09 | 0.09 | 83 | 1012.6 |
| 20260904000918 | 80 | 144 | 1.0 | 2.0 | 0.00 | 0.09 | 0.09 | 82 | 1012.8 |
| 20260904000418 | 80 | 157 | 1.0 | 1.0 | 0.00 | 0.09 | 0.09 | 81 | 1012.4 |
| 20260903235913 | 80 | 138 | 1.0 | 2.0 | 0.00 | 0.09 | 0.09 | 81 | 1012.5 |
| 20260903235409 | 80 | 146 | 1.0 | 1.0 | 0.00 | 0.09 | 0.09 | 80 | 1012.6 |
| 20260903234908 | 81 | 158 | 1.0 | 1.0 | 0.00 | 0.09 | 0.09 | 80 | 1013.0 |
| 20260903234404 | 81 | 138 | 0.0 | 1.0 | 0.00 | 0.09 | 0.09 | 80 | 1012.5 |
| 20260903233900 | 81 | 116 | 0.0 | 0.0 | 0.00 | 0.09 | 0.09 | 80 | 1012.8 |
| 20260903233356 | 81 | 187 | 1.0 | 1.0 | 0.00 | 0.09 | 0.09 | 78 | 1012.9 |
| 20260903232855 | 82 | 128 | 1.0 | 1.0 | 0.00 | 0.09 | 0.09 | 79 | 1012.9 |
| 20260903232351 | 82 | 125 | 1.0 | 1.0 | 0.00 | 0.09 | 0.09 | 79 | 1012.9 |
| 20260903231850 | 82 | 130 | 1.0 | 1.0 | 0.00 | 0.09 | 0.09 | 79 | 1012.9 |
| 20260903231345 | 83 | 107 | 0.0 | 1.0 | 0.00 | 0.09 | 0.09 | 78 | 1012.8 |
| 20260903230841 | 83 | 130 | 1.0 | 1.0 | 0.00 | 0.09 | 0.09 | 77 | 1012.8 |
| 20260903230336 | 83 | 117 | 2.0 | 2.0 | 0.00 | 0.09 | 0.09 | 76 | 1012.8 |
| 20260903225832 | 84 | 145 | 2.0 | 2.0 | 0.00 | 0.09 | 0.09 | 78 | 1012.6 |
| 20260903225328 | 84 | 124 | 1.0 | 1.0 | 0.00 | 0.09 | 0.09 | 78 | 1012.8 |
| 20260903224824 | 84 | 124 | 4.0 | 5.0 | 0.00 | 0.09 | 0.09 | 79 | 1013.0 |
| 20260903224320 | 85 | 125 | 1.0 | 1.0 | 0.00 | 0.09 | 0.09 | 80 | 1013.0 |
| 20260903223816 | 85 | 211 | 1.0 | 1.0 | 0.00 | 0.09 | 0.09 | 79 | 1012.9 |
| 20260903223314 | 85 | 206 | 0.0 | 0.0 | 0.00 | 0.09 | 0.09 | 80 | 1013.1 |
| 20260903222809 | 86 | 198 | 1.0 | 1.0 | 0.00 | 0.09 | 0.09 | 80 | 1012.9 |
| 20260903222308 | 86 | 254 | 2.0 | 2.0 | 0.00 | 0.09 | 0.09 | 77 | 1013.0 |
| 20260903221803 | 86 | 162 | 3.0 | 5.0 | 0.00 | 0.09 | 0.09 | 76 | 1012.9 |
| 20260903221302 | 86 | 181 | 2.0 | 3.0 | 0.00 | 0.09 | 0.09 | 77 | 1013.2 |
| 20260903220801 | 86 | 175 | 3.0 | 3.0 | 0.00 | 0.09 | 0.09 | 76 | 1013.2 |
| 20260903220255 | 86 | 103 | 1.0 | 2.0 | 0.00 | 0.09 | 0.09 | 78 | 1013.2 |
| 20260903215753 | 86 | 198 | 2.0 | 2.0 | 0.00 | 0.09 | 0.09 | 76 | 1013.3 |
| 20260903215250 | 86 | 182 | 3.0 | 3.0 | 0.00 | 0.09 | 0.09 | 76 | 1013.3 |
| 20260903214748 | 86 | 111 | 2.0 | 2.0 | 0.00 | 0.09 | 0.09 | 76 | 1013.1 |
| 20260903214244 | 87 | 127 | 3.0 | 3.0 | 0.00 | 0.09 | 0.09 | 76 | 1013.4 |
| 20260903213738 | 87 | 212 | 1.0 | 2.0 | 0.00 | 0.09 | 0.09 | 75 | 1013.4 |
| 20260903213234 | 86 | 130 | 1.0 | 2.0 | 0.00 | 0.09 | 0.09 | 76 | 1013.1 |
| 20260903212730 | 86 | 187 | 0.0 | 0.0 | 0.00 | 0.09 | 0.09 | 76 | 1013.4 |
| 20260903212226 | 86 | 235 | 1.0 | 1.0 | 0.00 | 0.09 | 0.09 | 76 | 1013.4 |
| 20260903211719 | 84 | 194 | 1.0 | 1.0 | 0.00 | 0.09 | 0.09 | 79 | 1013.3 |
| 20260903211216 | 85 | 181 | 1.0 | 2.0 | 0.00 | 0.09 | 0.09 | 79 | 1013.5 |
| 20260903210712 | 85 | 151 | 2.0 | 2.0 | 0.00 | 0.09 | 0.09 | 79 | 1013.3 |
| 20260903210207 | 86 | 145 | 2.0 | 3.0 | 0.00 | 0.09 | 0.09 | 76 | 1013.6 |
| 20260903205706 | 86 | 151 | 2.0 | 2.0 | 0.00 | 0.09 | 0.09 | 75 | 1013.6 |
| 20260903205206 | 86 | 67 | 2.0 | 2.0 | 0.00 | 0.09 | 0.09 | 76 | 1013.4 |
| 20260903204701 | 85 | 123 | 3.0 | 3.0 | 0.00 | 0.09 | 0.09 | 79 | 1013.6 |
| 20260903204157 | 86 | 125 | 1.0 | 2.0 | 0.00 | 0.09 | 0.09 | 76 | 1013.7 |
| 20260903203653 | 86 | 101 | 1.0 | 2.0 | 0.00 | 0.09 | 0.09 | 76 | 1013.7 |
| 20260903203148 | 85 | 143 | 3.0 | 3.0 | 0.00 | 0.09 | 0.09 | 77 | 1013.7 |
| 20260903202642 | 85 | 194 | 0.0 | 1.0 | 0.00 | 0.09 | 0.09 | 77 | 1013.8 |
| 20260903202138 | 85 | 183 | 0.0 | 0.0 | 0.00 | 0.09 | 0.09 | 76 | 1013.8 |
| 20260903201632 | 84 | 55 | 0.0 | 0.0 | 0.00 | 0.09 | 0.09 | 80 | 1014.0 |
| 20260903201131 | 84 | 96 | 2.0 | 2.0 | 0.00 | 0.09 | 0.09 | 80 | 1013.9 |
| 20260903200627 | 84 | 116 | 1.0 | 1.0 | 0.00 | 0.09 | 0.09 | 80 | 1014.0 |
| 20260903200122 | 84 | 306 | 1.0 | 2.0 | 0.00 | 0.09 | 0.09 | 80 | 1013.9 |
| 20260903195618 | 83 | 233 | 0.0 | 0.0 | 0.00 | 0.09 | 0.09 | 79 | 1013.8 |
| 20260903195113 | 84 | 61 | 3.0 | 3.0 | 0.00 | 0.09 | 0.09 | 81 | 1013.9 |
| 20260903194608 | 83 | 68 | 2.0 | 5.0 | 0.00 | 0.09 | 0.09 | 82 | 1014.0 |
| 20260903194103 | 84 | 116 | 1.0 | 1.0 | 0.00 | 0.09 | 0.09 | 78 | 1014.3 |
| 20260903193559 | 84 | 8 | 0.0 | 1.0 | 0.00 | 0.09 | 0.09 | 81 | 1014.4 |
| 20260903193055 | 84 | 30 | 1.0 | 1.0 | 0.00 | 0.09 | 0.09 | 80 | 1014.1 |
| 20260903192551 | 83 | 61 | 1.0 | 1.0 | 0.00 | 0.09 | 0.09 | 81 | 1014.1 |
| 20260903192046 | 82 | 208 | 0.0 | 0.0 | 0.00 | 0.09 | 0.09 | 82 | 1014.1 |
| 20260903191542 | 82 | 202 | 0.0 | 1.0 | 0.00 | 0.09 | 0.09 | 81 | 1014.0 |
| 20260903191043 | 82 | 161 | 1.0 | 1.0 | 0.00 | 0.09 | 0.09 | 84 | 1014.1 |
| 20260903190541 | 82 | 99 | 3.0 | 3.0 | 0.00 | 0.09 | 0.09 | 85 | 1013.9 |
| 20260903190041 | 81 | 245 | 2.0 | 2.0 | 0.00 | 0.09 | 0.09 | 85 | 1014.0 |
| 20260903185537 | 81 | 170 | 2.0 | 3.0 | 0.00 | 0.09 | 0.09 | 84 | 1014.0 |
| 20260903185032 | 80 | 101 | 4.0 | 5.0 | 0.00 | 0.09 | 0.09 | 84 | 1014.2 |
| 20260903184528 | 80 | 211 | 2.0 | 2.0 | 0.00 | 0.09 | 0.09 | 86 | 1014.3 |
| 20260903184023 | 80 | 212 | 3.0 | 3.0 | 0.00 | 0.09 | 0.09 | 85 | 1014.2 |
| 20260903183522 | 80 | 210 | 3.0 | 3.0 | 0.00 | 0.09 | 0.09 | 86 | 1014.3 |
| 20260903183018 | 79 | 121 | 1.0 | 2.0 | 0.00 | 0.09 | 0.09 | 83 | 1014.3 |
| 20260903182516 | 80 | 174 | 1.0 | 2.0 | 0.00 | 0.09 | 0.09 | 85 | 1014.2 |
| 20260903182013 | 80 | 159 | 3.0 | 3.0 | 0.00 | 0.09 | 0.09 | 87 | 1014.3 |
| 20260903181506 | 80 | 199 | 1.0 | 1.0 | 0.00 | 0.09 | 0.09 | 86 | 1014.6 |
| 20260903181005 | 78 | 193 | 2.0 | 2.0 | 0.00 | 0.09 | 0.09 | 88 | 1014.6 |
| 20260903180500 | 78 | 158 | 3.0 | 5.0 | 0.00 | 0.09 | 0.09 | 88 | 1014.3 |
| 20260903175954 | 77 | 107 | 0.0 | 1.0 | 0.00 | 0.09 | 0.09 | 91 | 1014.6 |
| 20260903175448 | 77 | 168 | 0.0 | 0.0 | 0.00 | 0.09 | 0.09 | 91 | 1014.9 |
| 20260903174947 | 76 | 74 | 1.0 | 1.0 | 0.00 | 0.09 | 0.09 | 92 | 1015.0 |
| 20260903174443 | 76 | 102 | 2.0 | 2.0 | 0.00 | 0.09 | 0.09 | 92 | 1015.2 |
| 20260903173942 | 75 | 81 | 1.0 | 1.0 | 0.00 | 0.09 | 0.09 | 93 | 1015.2 |
| 20260903173438 | 75 | 261 | 1.0 | 1.0 | 0.00 | 0.09 | 0.09 | 95 | 1015.3 |
| 20260903172933 | 74 | 92 | 3.0 | 3.0 | 0.00 | 0.09 | 0.09 | 96 | 1015.3 |
| 20260903172428 | 74 | 83 | 1.0 | 2.0 | 0.00 | 0.09 | 0.09 | 96 | 1015.0 |
| 20260903171924 | 74 | 125 | 0.0 | 0.0 | 0.00 | 0.09 | 0.09 | 97 | 1015.1 |
| 20260903171418 | 73 | 76 | 2.0 | 3.0 | 0.00 | 0.09 | 0.09 | 98 | 1015.4 |
| 20260903170913 | 72 | 49 | 2.0 | 2.0 | 0.00 | 0.09 | 0.09 | 98 | 1015.4 |
| 20260903170408 | 72 | 4 | 3.0 | 5.0 | 0.00 | 0.09 | 0.09 | 98 | 1015.6 |
| 20260903165907 | 72 | 19 | 1.0 | 1.0 | 0.00 | 0.09 | 0.09 | 98 | 1015.5 |
| 20260903165401 | 72 | 264 | 1.0 | 2.0 | 0.00 | 0.09 | 0.09 | 98 | 1015.8 |
| 20260903164856 | 72 | 313 | 1.0 | 2.0 | 0.00 | 0.09 | 0.09 | 97 | 1016.0 |
| 20260903164351 | 72 | 43 | 4.0 | 6.0 | 0.00 | 0.09 | 0.09 | 97 | 1016.0 |
| 20260903163850 | 73 | 22 | 7.0 | 13.0 | 0.00 | 0.09 | 0.09 | 98 | 1016.2 |
| 20260903163346 | 73 | 329 | 3.0 | 5.0 | 0.00 | 0.09 | 0.09 | 98 | 1016.0 |
| 20260903162842 | 74 | 77 | 1.0 | 1.0 | 0.00 | 0.09 | 0.09 | 98 | 1015.9 |
| 20260903162339 | 74 | 41 | 1.0 | 1.0 | 0.00 | 0.09 | 0.09 | 98 | 1015.9 |
| 20260903161834 | 74 | 272 | 2.0 | 2.0 | 0.05 | 0.09 | 0.09 | 97 | 1015.7 |
| 20260903161329 | 74 | 4 | 4.0 | 6.0 | 0.05 | 0.09 | 0.09 | 97 | 1015.7 |
| 20260903160825 | 74 | 232 | 2.0 | 2.0 | 0.19 | 0.08 | 0.08 | 96 | 1015.8 |
| 20260903160324 | 75 | 2 | 5.0 | 8.0 | 0.24 | 0.08 | 0.08 | 96 | 1015.8 |
| 20260903155822 | 75 | 317 | 1.0 | 2.0 | 0.05 | 0.05 | 0.05 | 95 | 1016.0 |
| 20260903155318 | 76 | 263 | 6.0 | 9.0 | 0.12 | 0.05 | 0.05 | 95 | 1016.0 |
| 20260903154813 | 78 | 66 | 2.0 | 3.0 | 0.19 | 0.04 | 0.04 | 94 | 1015.8 |
| 20260903154310 | 79 | 267 | 0.0 | 1.0 | 0.19 | 0.03 | 0.03 | 92 | 1015.4 |
| 20260903153805 | 80 | 163 | 0.0 | 0.0 | 0.07 | 0.01 | 0.01 | 90 | 1015.4 |
| 20260903153300 | 80 | 236 | 0.0 | 0.0 | 0.00 | 0.00 | 0.00 | 88 | 1015.4 |
| 20260903152757 | 81 | 294 | 1.0 | 1.0 | 0.00 | 0.00 | 0.00 | 87 | 1015.1 |
| 20260903152252 | 81 | 282 | 1.0 | 1.0 | 0.00 | 0.00 | 0.00 | 85 | 1015.0 |
| 20260903151752 | 82 | 37 | 1.0 | 2.0 | 0.00 | 0.00 | 0.00 | 84 | 1015.0 |
| 20260903151248 | 82 | 29 | 1.0 | 1.0 | 0.00 | 0.00 | 0.00 | 85 | 1015.1 |
| 20260903150748 | 83 | 307 | 4.0 | 7.0 | 0.00 | 0.00 | 0.00 | 84 | 1014.9 |
| 20260903150242 | 84 | 214 | 0.0 | 1.0 | 0.00 | 0.00 | 0.00 | 83 | 1015.0 |
| 20260903145737 | 84 | 210 | 0.0 | 0.0 | 0.00 | 0.00 | 0.00 | 82 | 1014.3 |
| 20260903145233 | 84 | 199 | 0.0 | 0.0 | 0.00 | 0.00 | 0.00 | 82 | 1014.0 |
| 20260903144731 | 85 | 202 | 0.0 | 0.0 | 0.00 | 0.00 | 0.00 | 82 | 1014.1 |
| 20260903144227 | 85 | 201 | 0.0 | 0.0 | 0.00 | 0.00 | 0.00 | 80 | 1014.1 |
| 20260903143722 | 85 | 217 | 0.0 | 0.0 | 0.00 | 0.00 | 0.00 | 81 | 1014.0 |
| 20260903143219 | 84 | 292 | 0.0 | 0.0 | 0.00 | 0.00 | 0.00 | 82 | 1014.1 |
| 20260903142714 | 84 | 255 | 0.0 | 0.0 | 0.00 | 0.00 | 0.00 | 82 | 1014.1 |
| 20260903142210 | 84 | 234 | 0.0 | 1.0 | 0.00 | 0.00 | 0.00 | 82 | 1014.1 |
| 20260903141705 | 84 | 309 | 1.0 | 1.0 | 0.00 | 0.00 | 0.00 | 81 | 1014.0 |
| 20260903141200 | 84 | 222 | 0.0 | 0.0 | 0.00 | 0.00 | 0.00 | 81 | 1014.1 |
| 20260903140656 | 84 | 140 | 0.0 | 1.0 | 0.00 | 0.00 | 0.00 | 81 | 1014.0 |
| 20260903140151 | 84 | 311 | 0.0 | 1.0 | 0.00 | 0.00 | 0.00 | 81 | 1013.9 |
| 20260903135647 | 84 | 216 | 1.0 | 1.0 | 0.00 | 0.00 | 0.00 | 79 | 1014.0 |
| 20260903135142 | 84 | 261 | 1.0 | 2.0 | 0.00 | 0.00 | 0.00 | 79 | 1013.8 |
| 20260903134641 | 85 | 215 | 0.0 | 0.0 | 0.00 | 0.00 | 0.00 | 78 | 1013.7 |
| 20260903134137 | 86 | 219 | 1.0 | 1.0 | 0.00 | 0.00 | 0.00 | 76 | 1013.7 |
| 20260903133635 | 85 | 115 | 0.0 | 1.0 | 0.00 | 0.00 | 0.00 | 76 | 1013.6 |
| 20260903133131 | 84 | 233 | 2.0 | 2.0 | 0.00 | 0.00 | 0.00 | 78 | 1013.5 |
| 20260903132630 | 84 | 72 | 1.0 | 1.0 | 0.00 | 0.00 | 0.00 | 78 | 1013.4 |
| 20260903132125 | 84 | 215 | 0.0 | 0.0 | 0.00 | 0.00 | 0.00 | 80 | 1013.4 |
| 20260903131620 | 83 | 199 | 0.0 | 1.0 | 0.00 | 0.00 | 0.00 | 80 | 1013.4 |
| 20260903131119 | 83 | 211 | 2.0 | 6.0 | 0.00 | 0.00 | 0.00 | 80 | 1013.6 |
| 20260903130616 | 82 | 278 | 1.0 | 1.0 | 0.00 | 0.00 | 0.00 | 82 | 1013.4 |
| 20260903130109 | 82 | 257 | 2.0 | 3.0 | 0.00 | 0.00 | 0.00 | 82 | 1013.5 |
| 20260903125607 | 81 | 198 | 2.0 | 2.0 | 0.00 | 0.00 | 0.00 | 83 | 1013.8 |
| 20260903125103 | 81 | 236 | 1.0 | 1.0 | 0.00 | 0.00 | 0.00 | 84 | 1013.7 |
| 20260903124602 | 80 | 223 | 0.0 | 1.0 | 0.00 | 0.00 | 0.00 | 85 | 1013.6 |
| 20260903124102 | 80 | 238 | 3.0 | 5.0 | 0.00 | 0.00 | 0.00 | 86 | 1013.8 |
| 20260903123601 | 80 | 248 | 1.0 | 1.0 | 0.00 | 0.00 | 0.00 | 86 | 1013.9 |
| 20260903123101 | 79 | 225 | 2.0 | 2.0 | 0.00 | 0.00 | 0.00 | 88 | 1013.9 |
| 20260903122601 | 79 | 149 | 1.0 | 1.0 | 0.00 | 0.00 | 0.00 | 89 | 1013.9 |
| 20260903122055 | 78 | 195 | 1.0 | 2.0 | 0.00 | 0.00 | 0.00 | 89 | 1013.9 |
| 20260903121549 | 78 | 177 | 1.0 | 1.0 | 0.00 | 0.00 | 0.00 | 90 | 1013.9 |
| 20260903121045 | 78 | 212 | 0.0 | 1.0 | 0.00 | 0.00 | 0.00 | 91 | 1013.8 |
| 20260903120543 | 77 | 191 | 0.0 | 0.0 | 0.00 | 0.00 | 0.00 | 91 | 1013.8 |
| 20260903120038 | 77 | 201 | 0.0 | 0.0 | 0.00 | 0.00 | 0.00 | 92 | 1013.9 |
| 20260903115537 | 77 | 214 | 1.0 | 2.0 | 0.00 | 0.00 | 0.00 | 92 | 1013.7 |
| 20260903115032 | 77 | 201 | 0.0 | 0.0 | 0.00 | 0.00 | 0.00 | 93 | 1013.7 |
| 20260903114527 | 77 | 203 | 0.0 | 1.0 | 0.00 | 0.00 | 0.00 | 93 | 1013.9 |
| 20260903114023 | 77 | 167 | 1.0 | 2.0 | 0.00 | 0.00 | 0.00 | 93 | 1013.7 |
| 20260903113518 | 77 | 220 | 0.0 | 1.0 | 0.00 | 0.00 | 0.00 | 93 | 1013.8 |
| 20260903113014 | 77 | 222 | 0.0 | 0.0 | 0.00 | 0.00 | 0.00 | 93 | 1013.8 |
| 20260903112510 | 77 | 196 | 2.0 | 2.0 | 0.00 | 0.00 | 0.00 | 93 | 1013.8 |
| 20260903112009 | 77 | 220 | 0.0 | 0.0 | 0.00 | 0.00 | 0.00 | 92 | 1013.8 |
| 20260903111503 | 77 | 193 | 0.0 | 1.0 | 0.00 | 0.00 | 0.00 | 93 | 1013.8 |
| 20260903110959 | 77 | 201 | 0.0 | 1.0 | 0.00 | 0.00 | 0.00 | 93 | 1013.6 |
| 20260903110455 | 77 | 232 | 1.0 | 1.0 | 0.00 | 0.00 | 0.00 | 92 | 1013.7 |
| 20260903105949 | 77 | 215 | 1.0 | 1.0 | 0.00 | 0.00 | 0.00 | 92 | 1013.6 |
| 20260903105445 | 77 | 178 | 3.0 | 5.0 | 0.00 | 0.00 | 0.00 | 93 | 1013.9 |
| 20260903104944 | 77 | 181 | 1.0 | 1.0 | 0.00 | 0.00 | 0.00 | 94 | 1013.9 |
| 20260903104443 | 77 | 190 | 1.0 | 1.0 | 0.00 | 0.00 | 0.00 | 94 | 1013.5 |